Météo par heure à Allschwil

Ce jour, 15 Mai, Samedi

Heure Température Précipitation Vent Pression Humidité
00:00 +6°C° 0 mm 2 m/s 731 mmHg 94%
01:00 +6°C° 0 mm 2 m/s 731 mmHg 94%
02:00 +5°C° 0 mm 2 m/s 731 mmHg 94%
03:00 +5°C° 0 mm 2 m/s 731 mmHg 94%
04:00 +6°C° 0 mm 1 m/s 730 mmHg 94%
05:00 +7°C° 0 mm 1 m/s 730 mmHg 93%
06:00 +8°C° 0 mm 1 m/s 730 mmHg 91%
07:00 +9°C° 0 mm 1 m/s 730 mmHg 90%
08:00 +10°C° 0.1 mm 2 m/s 730 mmHg 82%
09:00 +11°C° 0.1 mm 3 m/s 729 mmHg 73%
10:00 +13°C° 0.1 mm 3 m/s 729 mmHg 65%
11:00 +12°C° 0.1 mm 4 m/s 729 mmHg 69%
12:00 +12°C° 0.1 mm 4 m/s 728 mmHg 74%
13:00 +10°C° 0.1 mm 5 m/s 728 mmHg 78%
14:00 +10°C° 1.2 mm 4 m/s 728 mmHg 84%
15:00 +10°C° 1.2 mm 4 m/s 729 mmHg 89%
16:00 +9°C° 1.2 mm 3 m/s 729 mmHg 94%
17:00 +9°C° 1.3 mm 3 m/s 728 mmHg 95%
18:00 +9°C° 1.3 mm 3 m/s 728 mmHg 96%
19:00 +9°C° 1.3 mm 2 m/s 728 mmHg 96%
20:00 +9°C° 1.4 mm 2 m/s 729 mmHg 96%
21:00 +9°C° 1.4 mm 2 m/s 729 mmHg 96%
22:00 +9°C° 1.4 mm 2 m/s 730 mmHg 96%
23:00 +9°C° 0.1 mm 2 m/s 730 mmHg 95%

Demain, 16 Mai, Dimanche

Heure Température Précipitation Vent Pression Humidité
00:00 +8°C° 0.1 mm 2 m/s 730 mmHg 95%
01:00 +8°C° 0.1 mm 2 m/s 730 mmHg 94%
02:00 +8°C° 0 mm 2 m/s 729 mmHg 94%
03:00 +8°C° 0 mm 2 m/s 729 mmHg 94%
04:00 +8°C° 0 mm 2 m/s 729 mmHg 95%
05:00 +8°C° 0.1 mm 2 m/s 728 mmHg 94%
06:00 +9°C° 0.1 mm 1 m/s 728 mmHg 94%
07:00 +10°C° 0.1 mm 1 m/s 728 mmHg 94%
08:00 +10°C° 0.5 mm 1 m/s 728 mmHg 95%
09:00 +11°C° 0.5 mm 1 m/s 728 mmHg 95%
10:00 +11°C° 0.5 mm 1 m/s 728 mmHg 95%
11:00 +10°C° 0.8 mm 2 m/s 727 mmHg 95%
12:00 +11°C° 0.8 mm 3 m/s 727 mmHg 94%
13:00 +11°C° 0.8 mm 3 m/s 727 mmHg 94%
14:00 +12°C° 0.7 mm 4 m/s 727 mmHg 92%
15:00 +13°C° 0.7 mm 4 m/s 727 mmHg 90%
16:00 +14°C° 0.7 mm 5 m/s 727 mmHg 88%
17:00 +13°C° 1.4 mm 5 m/s 727 mmHg 88%
18:00 +12°C° 1.4 mm 5 m/s 727 mmHg 89%
19:00 +10°C° 1.4 mm 6 m/s 727 mmHg 89%
20:00 +9°C° 0.4 mm 5 m/s 728 mmHg 90%
21:00 +10°C° 0.4 mm 4 m/s 728 mmHg 91%
22:00 +8°C° 0.4 mm 4 m/s 729 mmHg 92%
23:00 +9°C° 0.3 mm 3 m/s 729 mmHg 92%

Après-demain, 17 Mai, Lundi

Heure Température Précipitation Vent Pression Humidité
00:00 +8°C° 0.3 mm 3 m/s 729 mmHg 92%
01:00 +8°C° 0.3 mm 3 m/s 729 mmHg 93%
02:00 +8°C° 0 mm 3 m/s 729 mmHg 93%
03:00 +7°C° 0 mm 3 m/s 729 mmHg 93%
04:00 +7°C° 0 mm 3 m/s 729 mmHg 93%
05:00 +6°C° 0 mm 4 m/s 730 mmHg 92%
06:00 +7°C° 0 mm 4 m/s 730 mmHg 90%
07:00 +7°C° 0 mm 4 m/s 730 mmHg 89%
08:00 +8°C° 0.3 mm 5 m/s 730 mmHg 88%
09:00 +8°C° 0.3 mm 5 m/s 730 mmHg 87%
10:00 +8°C° 0.3 mm 6 m/s 731 mmHg 86%
11:00 +9°C° 0.2 mm 6 m/s 731 mmHg 80%
12:00 +11°C° 0.2 mm 6 m/s 731 mmHg 75%
13:00 +13°C° 0.2 mm 6 m/s 731 mmHg 69%
14:00 +11°C° 0.5 mm 6 m/s 731 mmHg 75%
15:00 +10°C° 0.5 mm 5 m/s 731 mmHg 82%
16:00 +10°C° 0.5 mm 5 m/s 731 mmHg 88%
17:00 +10°C° 0.4 mm 4 m/s 731 mmHg 89%
18:00 +10°C° 0.4 mm 4 m/s 731 mmHg 89%
19:00 +10°C° 0.4 mm 4 m/s 731 mmHg 90%
20:00 +10°C° 0.3 mm 4 m/s 732 mmHg 91%
21:00 +10°C° 0.3 mm 4 m/s 732 mmHg 93%
22:00 +8°C° 0.3 mm 4 m/s 732 mmHg 94%
23:00 +8°C° 0.3 mm 4 m/s 732 mmHg 93%

18 Mai, Mardi

Heure Température Précipitation Vent Pression Humidité
00:00 +8°C° 0.3 mm 4 m/s 733 mmHg 93%
01:00 +8°C° 0.3 mm 4 m/s 733 mmHg 93%
02:00 +8°C° 0.2 mm 4 m/s 733 mmHg 93%
03:00 +7°C° 0.2 mm 4 m/s 733 mmHg 93%
04:00 +7°C° 0.2 mm 4 m/s 734 mmHg 94%
05:00 +7°C° 0.8 mm 5 m/s 734 mmHg 93%
06:00 +7°C° 0.8 mm 5 m/s 734 mmHg 93%
07:00 +7°C° 0.8 mm 5 m/s 735 mmHg 93%
08:00 +7°C° 0.8 mm 5 m/s 735 mmHg 92%
09:00 +7°C° 0.8 mm 5 m/s 736 mmHg 92%
10:00 +7°C° 0.8 mm 5 m/s 736 mmHg 92%
11:00 +7°C° 0.7 mm 5 m/s 737 mmHg 93%
12:00 +7°C° 0.7 mm 4 m/s 737 mmHg 93%
13:00 +7°C° 0.7 mm 4 m/s 737 mmHg 94%
14:00 +7°C° 0.4 mm 4 m/s 737 mmHg 94%
15:00 +8°C° 0.4 mm 3 m/s 737 mmHg 94%
16:00 +9°C° 0.4 mm 3 m/s 737 mmHg 93%
17:00 +9°C° 0.3 mm 3 m/s 737 mmHg 93%
18:00 +9°C° 0.3 mm 3 m/s 737 mmHg 93%
19:00 +9°C° 0.3 mm 2 m/s 737 mmHg 92%
20:00 +9°C° 0.6 mm 2 m/s 738 mmHg 93%
21:00 +8°C° 0.6 mm 2 m/s 738 mmHg 94%
22:00 +7°C° 0.6 mm 2 m/s 738 mmHg 95%
23:00 +7°C° 0.1 mm 2 m/s 738 mmHg 95%

19 Mai, Mercredi

Heure Température Précipitation Vent Pression Humidité
00:00 +7°C° 0.1 mm 2 m/s 738 mmHg 95%
01:00 +6°C° 0.1 mm 2 m/s 738 mmHg 95%
02:00 +7°C° 0.7 mm 2 m/s 738 mmHg 96%
03:00 +7°C° 0.7 mm 2 m/s 738 mmHg 96%
04:00 +7°C° 0.7 mm 3 m/s 737 mmHg 96%
05:00 +8°C° 0.5 mm 3 m/s 737 mmHg 95%
06:00 +7°C° 0.5 mm 4 m/s 737 mmHg 95%
07:00 +7°C° 0.5 mm 4 m/s 738 mmHg 94%
08:00 +8°C° 0.7 mm 4 m/s 738 mmHg 92%
09:00 +8°C° 0.7 mm 5 m/s 738 mmHg 91%
10:00 +9°C° 0.7 mm 5 m/s 738 mmHg 89%
11:00 +9°C° 0.3 mm 5 m/s 738 mmHg 90%
12:00 +8°C° 0.3 mm 4 m/s 738 mmHg 91%
13:00 +8°C° 0.3 mm 4 m/s 739 mmHg 93%
14:00 +10°C° 0.4 mm 4 m/s 739 mmHg 88%
15:00 +11°C° 0.4 mm 4 m/s 739 mmHg 83%
16:00 +12°C° 0.4 mm 4 m/s 739 mmHg 79%
17:00 +11°C° 0.2 mm 4 m/s 739 mmHg 80%
18:00 +10°C° 0.2 mm 3 m/s 739 mmHg 82%
19:00 +10°C° 0.2 mm 2 m/s 739 mmHg 84%
20:00 +9°C° 0 mm 2 m/s 740 mmHg 87%
21:00 +7°C° 0 mm 2 m/s 740 mmHg 90%
22:00 +6°C° 0 mm 2 m/s 740 mmHg 92%
23:00 +6°C° 0 mm 1 m/s 740 mmHg 92%

20 Mai, Jeudi

Heure Température Précipitation Vent Pression Humidité
00:00 +6°C° 0 mm 1 m/s 740 mmHg 91%
01:00 +6°C° 0 mm 1 m/s 739 mmHg 90%
02:00 +6°C° 0 mm 1 m/s 739 mmHg 90%
03:00 +5°C° 0 mm 1 m/s 739 mmHg 90%
04:00 +5°C° 0 mm 1 m/s 738 mmHg 90%
05:00 +6°C° 0 mm 1 m/s 738 mmHg 87%
06:00 +8°C° 0 mm 1 m/s 738 mmHg 84%
07:00 +9°C° 0 mm 1 m/s 737 mmHg 82%
08:00 +10°C° 0 mm 1 m/s 737 mmHg 76%
09:00 +12°C° 0 mm 1 m/s 737 mmHg 70%
10:00 +13°C° 0 mm 1 m/s 736 mmHg 64%
11:00 +15°C° 0 mm 2 m/s 736 mmHg 58%
12:00 +16°C° 0 mm 2 m/s 735 mmHg 53%
13:00 +18°C° 0 mm 3 m/s 735 mmHg 48%
14:00 +19°C° 0 mm 3 m/s 734 mmHg 49%
15:00 +20°C° 0 mm 3 m/s 734 mmHg 50%
16:00 +20°C° 0 mm 4 m/s 733 mmHg 51%
17:00 +19°C° 0.2 mm 4 m/s 733 mmHg 60%
18:00 +17°C° 0.2 mm 4 m/s 732 mmHg 70%
19:00 +15°C° 0.2 mm 4 m/s 732 mmHg 80%
20:00 +14°C° 0.3 mm 5 m/s 733 mmHg 83%
21:00 +13°C° 0.3 mm 5 m/s 733 mmHg 87%
22:00 +12°C° 0.3 mm 5 m/s 734 mmHg 91%
23:00 +10°C° 0 mm 5 m/s 734 mmHg 87%
Voir plus

Nous avons besoin de votre consentement

Meteoprog et ses fournisseurs de services peuvent stocker et accéder à des données personnelles telles que des cookies, des identifiants d'appareils ou d'autres technologies similaires sur votre appareil et traiter ces données pour personnaliser le contenu et les publicités, ainsi que pour fournir des fonctionnalités de médias sociaux et analyser le trafic.

  • Stocker et/ou accéder à des informations sur votre appareil

    Des cookies, des identifiants d'appareils ou d'autres informations peuvent être stockés ou accessibles sur votre appareil aux fins indiquées ci-dessus.

  • Annonces et contenus personnalisés, mesure des annonces et des contenus, connaissance de l'audience et développement de produits

    Les annonces et le contenu peuvent être personnalisés en fonction d'un profil. D'autres données peuvent être ajoutées pour mieux personnaliser les annonces et le contenu. Les performances des publicités et du contenu peuvent être mesurées. Il est possible d'obtenir des informations sur le public qui a vu les publicités et le contenu. Ces données peuvent être utilisées pour développer ou améliorer l'expérience de l'utilisateur, les systèmes et les logiciels.

En cliquant sur "J'accepte", vous autorisez l'utilisation de cookies, des identifiants d'appareils, des balises web ou d'autres technologies similaires. Vos paramètres peuvent être modifiés dans le navigateur de votre appareil.

Dans certains cas, des intérêts légitimes peuvent être invoqués plutôt qu'un consentement. Vous pouvez en savoir plus à ce sujet dans notre Politique de confidentialité et de cookies.